Wind_Speed
12 12 12 11 10 10 11 12 13 14 15 16 17 18 20 22 22 23 24 26 26 26 27 27 27 27 27 27 28 27 26 27 26 26 26 25 24 23
13 12 12 11 10 11 11 13 14 14 15 16 16 17 19 21 21 22 23 24 26 26 26 26 27 26 26 26 26 27 27 27 28 28 27 28 27 26
14 13 12 12 12 12 12 13 14 15 15 16 17 17 18 19 20 22 23 23 25 26 27 27 27 27 27 27 26 27 28 28 28 28 28 28 28 27
15 14 14 13 13 13 13 13 14 15 15 16 17 17 17 19 20 21 22 23 24 25 26 27 26 27 27 28 28 27 27 28 28 29 29 29 28 29
17 16 15 15 15 15 15 14 15 15 15 16 17 18 18 18 20 21 22 23 24 25 25 26 26 27 28 28 28 28 28 29 29 29 29 29 29 29
19 18 17 17 17 16 16 16 16 16 17 17 17 18 19 19 19 21 22 22 23 25 25 26 26 27 28 29 29 30 30 29 29 29 29 29 29 29
21 20 20 19 19 18 18 18 18 18 19 18 18 19 20 20 20 21 22 23 23 24 25 26 26 27 28 29 29 29 30 30 30 30 30 30 30 30
25 23 22 22 21 21 21 20 20 20 20 20 19 19 20 21 22 21 21 22 23 24 25 26 27 27 27 28 29 29 29 30 30 31 31 31 31 31
28 27 25 24 24 23 23 22 22 22 22 22 21 21 21 21 23 23 22 22 23 24 24 25 26 27 27 28 28 29 29 30 30 30 30 31 31 31
31 30 29 27 26 26 26 25 24 24 23 23 23 22 22 22 23 23 23 23 24 24 24 24 25 26 27 28 28 29 29 29 30 30 31 31 31 31
33 32 32 31 29 28 28 27 27 26 25 25 24 24 23 23 24 24 24 23 24 24 24 24 24 24 25 26 27 27 28 28 29 29 30 31 31 31
35 34 34 33 32 32 31 30 29 28 28 27 26 26 25 24 24 24 24 24 24 24 25 25 24 24 24 25 26 26 26 27 28 29 30 30 31 31
36 36 35 34 34 34 33 32 31 30 29 29 28 28 27 26 25 24 25 25 24 24 24 24 24 25 24 24 25 25 26 27 28 29 30 30 30 31
38 37 36 36 36 35 35 34 33 32 31 30 30 29 28 27 27 26 25 25 25 25 25 25 24 24 24 24 25 25 26 27 28 28 28 29 30 30
39 38 37 37 37 37 36 35 35 34 33 32 31 30 29 29 28 28 27 26 26 25 25 25 25 25 25 25 25 26 26 27 27 27 28 29 29 30
40 39 39 38 39 38 38 37 36 35 34 33 33 32 31 31 30 29 28 28 28 27 26 26 26 25 25 25 25 25 26 26 27 27 27 28 29 30
41 41 40 39 39 39 37 37 37 36 35 34 33 33 33 32 31 30 30 29 29 28 27 26 26 25 25 25 25 25 25 26 26 27 28 28 29 30
42 41 41 41 40 40 39 38 38 38 36 36 35 34 33 33 32 31 30 29 29 28 28 27 27 26 26 26 26 26 26 26 27 27 27 28 29 30
42 41 41 42 41 41 41 39 39 38 38 37 36 35 34 33 33 32 31 30 30 29 29 29 28 28 27 27 27 27 27 27 27 27 28 28 29 30
41 41 42 42 43 43 42 41 39 39 39 38 38 37 36 35 34 33 33 32 31 31 30 30 30 29 29 29 29 29 28 28 29 29 29 29 30 31
42 41 41 42 43 43 43 42 41 40 40 40 39 38 38 37 36 35 34 33 32 32 31 31 31 31 31 30 30 30 29 30 30 30 30 30 30 31
43 41 40 41 43 43 44 43 42 41 40 40 40 40 38 37 37 36 35 34 33 32 31 31 32 31 31 30 30 30 30 30 30 30 30 31 31 30
44 43 41 41 43 43 44 44 42 42 41 41 41 40 39 38 38 37 36 35 34 32 32 32 32 32 31 31 31 30 30 31 30 30 30 30 31 31
Wind_Direction
310 303 298 292 282 275 267 259 251 246 244 244 243 241 238 237 236 236 233 231 233 233 235 236 236 237 237 236 236 236 237 238 238 238 239 240 242 245
310 302 297 291 280 278 271 262 255 249 247 245 244 243 241 238 237 236 233 232 233 235 236 237 236 235 237 237 238 238 239 240 240 241 242 243 245 247
307 300 295 291 280 276 275 269 261 252 248 246 244 243 242 241 240 237 234 234 235 236 236 236 236 236 237 237 239 241 242 242 242 243 244 245 247 248
306 297 292 288 281 274 273 269 264 257 250 248 246 245 246 244 242 239 237 236 236 236 236 236 237 236 236 237 240 242 243 243 245 245 246 246 248 248
305 296 289 285 280 275 270 267 264 259 253 251 249 249 248 246 243 240 239 239 238 238 239 238 238 238 238 239 241 243 244 245 246 247 249 249 248 249
300 296 290 283 278 274 269 267 263 259 257 253 251 250 249 248 245 241 241 240 239 239 239 241 240 240 240 241 243 244 245 246 246 247 249 250 250 250
293 290 287 284 279 274 269 265 262 260 257 254 254 252 249 248 248 246 244 242 241 240 240 240 242 242 242 242 243 243 245 246 247 249 249 250 251 253
288 285 282 280 278 274 269 264 260 258 256 254 255 253 249 248 248 248 246 244 244 243 243 243 243 243 243 242 243 245 246 247 249 250 251 251 252 255
284 281 278 276 273 271 268 264 259 256 255 254 255 253 251 249 248 248 246 246 245 245 244 245 245 244 245 245 245 247 248 249 249 249 250 252 253 255
280 277 274 272 270 268 266 263 259 257 255 254 254 253 252 249 249 249 247 247 245 244 244 245 246 246 246 247 247 248 249 249 248 250 251 252 254 256
278 275 272 269 267 264 263 261 258 256 254 252 250 252 252 251 250 249 247 246 246 247 246 245 245 247 247 249 249 249 249 249 251 252 253 253 254 256
275 272 270 267 264 262 261 259 257 254 253 252 249 250 251 251 250 249 247 247 246 246 246 246 247 247 248 249 250 250 251 252 253 253 253 254 255 257
274 270 267 264 262 260 258 257 255 253 252 252 250 249 250 250 251 250 249 248 247 247 247 248 249 249 250 249 250 251 252 253 254 254 254 254 256 258
272 270 265 261 260 259 257 255 253 252 251 251 249 248 248 248 249 249 250 250 249 247 248 250 250 251 250 250 251 251 253 254 255 256 256 256 257 258
271 269 265 261 259 257 256 254 253 252 251 250 248 247 247 247 247 247 248 248 249 248 248 250 251 251 251 252 253 254 255 256 256 256 257 256 257 259
269 267 264 261 258 256 255 253 251 251 251 250 248 247 247 247 247 246 246 247 248 248 249 250 251 251 252 254 254 255 257 257 258 259 260 261 261 262
267 265 263 259 257 255 254 253 250 249 249 249 248 248 247 247 247 247 246 247 247 248 249 249 249 250 252 254 255 256 256 257 258 259 261 263 264 265
266 263 261 258 255 253 251 249 248 247 247 248 248 247 246 246 245 245 245 245 246 247 249 249 250 251 252 254 255 256 257 259 260 261 263 265 266 267
265 262 260 256 253 251 248 246 245 245 245 245 246 246 245 245 245 245 246 246 246 248 249 250 251 251 252 254 256 258 260 261 262 263 265 267 268 270
266 263 258 255 253 250 247 245 243 242 242 243 243 244 244 244 243 244 244 245 247 248 249 250 250 251 251 253 256 259 260 261 263 264 266 268 269 271
264 263 259 254 251 249 247 244 242 242 241 240 241 242 242 242 243 243 243 244 245 246 248 249 250 250 252 254 256 258 260 262 264 266 267 269 271 272
264 262 259 254 249 246 244 241 240 241 240 238 239 240 241 241 241 242 243 243 244 245 246 247 249 250 251 253 256 258 261 262 264 266 267 269 272 273
263 261 259 253 247 245 242 239 239 239 239 238 237 239 240 240 240 240 241 241 243 244 244 245 247 249 251 253 255 258 261 262 264 268 270 271 274 276
Height
5796 5796 5795 5795 5795 5795 5795 5796 5797 5798 5800 5802 5803 5805 5807 5810 5813 5815 5818 5821 5825 5828 5832 5835 5838 5841 5845 5847 5850 5854 5857 5860 5862 5865 5868 5870 5872 5874
5794 5793 5793 5793 5792 5792 5792 5793 5793 5795 5796 5798 5799 5801 5803 5805 5808 5810 5813 5816 5819 5823 5826 5829 5832 5836 5839 5842 5845 5848 5851 5854 5857 5859 5862 5864 5867 5869
5792 5791 5790 5790 5789 5789 5789 5790 5790 5791 5792 5794 5795 5797 5799 5801 5803 5805 5808 5810 5813 5817 5820 5823 5827 5830 5833 5836 5839 5842 5845 5848 5850 5853 5855 5858 5860 5862
5789 5788 5787 5787 5786 5786 5786 5786 5786 5787 5788 5789 5791 5792 5794 5796 5798 5800 5802 5805 5808 5811 5814 5817 5820 5824 5827 5830 5833 5835 5838 5841 5844 5846 5849 5851 5853 5855
5786 5785 5784 5783 5783 5782 5782 5782 5783 5783 5784 5785 5786 5788 5789 5791 5793 5795 5797 5799 5802 5805 5808 5811 5814 5817 5820 5823 5826 5829 5831 5834 5837 5839 5841 5844 5846 5848
5782 5781 5780 5779 5778 5778 5778 5778 5779 5779 5780 5781 5782 5783 5785 5786 5788 5789 5791 5794 5796 5799 5802 5804 5807 5810 5813 5816 5819 5821 5824 5827 5829 5832 5834 5836 5838 5840
5777 5775 5774 5774 5773 5773 5773 5773 5774 5774 5775 5776 5777 5778 5779 5781 5783 5784 5786 5788 5790 5792 5795 5798 5800 5803 5805 5808 5811 5813 5816 5819 5821 5824 5826 5828 5831 5832
5769 5769 5768 5768 5767 5767 5767 5767 5768 5769 5770 5770 5772 5773 5774 5775 5776 5778 5779 5782 5784 5786 5789 5791 5793 5796 5798 5801 5803 5806 5808 5811 5813 5816 5818 5820 5822 5824
5761 5761 5761 5760 5760 5760 5760 5760 5761 5762 5763 5764 5765 5766 5768 5769 5770 5771 5773 5775 5778 5779 5782 5784 5786 5789 5791 5793 5796 5798 5801 5803 5805 5807 5809 5811 5813 5815
5750 5750 5751 5751 5752 5752 5752 5753 5754 5755 5756 5757 5759 5760 5761 5763 5764 5765 5767 5769 5771 5772 5774 5777 5779 5781 5783 5785 5788 5790 5792 5794 5797 5799 5801 5803 5805 5806
5739 5739 5740 5741 5742 5742 5743 5744 5746 5747 5748 5750 5751 5753 5754 5755 5757 5758 5760 5762 5764 5766 5767 5770 5772 5774 5776 5778 5780 5782 5784 5786 5788 5790 5792 5794 5796 5797
5727 5728 5728 5729 5730 5731 5732 5734 5736 5739 5740 5742 5743 5745 5746 5748 5749 5751 5753 5755 5757 5759 5760 5762 5764 5766 5768 5770 5772 5774 5776 5778 5779 5781 5783 5785 5786 5788
5713 5714 5715 5716 5717 5719 5720 5723 5726 5728 5730 5733 5735 5737 5739 5740 5742 5744 5745 5747 5749 5751 5753 5755 5757 5758 5760 5762 5764 5766 5767 5769 5770 5772 5773 5775 5777 5778
5699 5700 5702 5703 5705 5707 5709 5712 5714 5717 5720 5723 5725 5728 5730 5732 5734 5735 5737 5739 5741 5743 5745 5747 5749 5750 5752 5754 5756 5757 5759 5760 5761 5763 5764 5765 5767 5768
5684 5686 5688 5690 5691 5694 5697 5700 5703 5706 5709 5712 5716 5718 5721 5723 5725 5727 5729 5731 5733 5735 5737 5739 5741 5743 5744 5746 5748 5749 5750 5751 5752 5754 5755 5756 5758 5759
5670 5671 5673 5676 5678 5681 5684 5688 5691 5695 5698 5702 5705 5708 5711 5713 5716 5718 5720 5722 5725 5727 5729 5731 5732 5734 5736 5738 5739 5740 5741 5743 5744 5745 5746 5747 5748 5749
5654 5657 5659 5662 5665 5668 5672 5675 5679 5683 5687 5691 5694 5697 5700 5703 5706 5708 5711 5713 5716 5718 5720 5722 5724 5726 5728 5729 5731 5732 5733 5734 5735 5736 5737 5738 5738 5739
5639 5641 5644 5647 5650 5654 5658 5662 5667 5671 5675 5679 5682 5686 5689 5692 5696 5699 5701 5704 5707 5709 5711 5713 5715 5717 5719 5721 5722 5723 5724 5725 5726 5727 5727 5728 5729 5729
5623 5625 5628 5632 5635 5639 5644 5648 5653 5658 5662 5666 5671 5674 5678 5681 5685 5688 5691 5694 5697 5699 5702 5704 5706 5708 5710 5712 5713 5714 5715 5716 5717 5717 5718 5719 5719 5720
5608 5610 5612 5616 5620 5624 5629 5633 5639 5643 5649 5654 5658 5662 5667 5670 5674 5678 5681 5684 5687 5690 5692 5694 5696 5699 5701 5702 5703 5705 5706 5707 5707 5708 5709 5709 5709 5710
5593 5594 5596 5600 5604 5609 5614 5619 5624 5630 5635 5640 5645 5650 5655 5659 5663 5666 5670 5673 5676 5679 5682 5684 5686 5688 5691 5693 5694 5695 5696 5697 5698 5698 5699 5699 5699 5699
5577 5578 5581 5584 5589 5593 5598 5604 5609 5615 5621 5626 5632 5637 5642 5647 5651 5655 5659 5662 5665 5668 5671 5674 5676 5678 5681 5683 5684 5685 5686 5687 5688 5688 5689 5689 5689 5689
5562 5563 5565 5569 5573 5578 5583 5589 5595 5601 5607 5612 5618 5624 5629 5634 5639 5643 5647 5651 5654 5658 5661 5664 5666 5669 5671 5672 5674 5676 5677 5677 5678 5678 5679 5678 5679 5678